Wind_Speed
27 20 17 15 17 20 17 15 12 12 20 19 18 14 12 6 5 8 11 12 15 19 26 28 25 20 17 17 19 24 28 29 31 33 37 39 37 31 28 31 31 30 20
27 24 22 17 13 14 12 12 12 18 18 15 6 3 4 5 9 12 12 17 20 26 23 19 17 14 15 17 20 22 26 27 30 34 38 30 38 33 23 27 30 29 29
25 22 19 18 17 15 12 9 6 4 2 4 5 7 9 12 13 16 19 19 20 18 17 15 14 16 18 21 22 24 26 31 32 33 27 24 21 29 27 25 28 28 30
22 18 15 12 10 11 8 7 6 4 4 8 14 15 16 17 19 20 15 15 17 16 15 19 22 24 24 24 26 28 30 29 29 26 22 22 25 18 25 23 34 38 39
15 11 8 7 9 8 7 10 11 12 15 17 21 22 21 21 21 18 18 14 12 14 20 26 26 24 23 24 26 26 22 22 21 23 22 25 24 23 28 34 33 36 32
7 2 1 6 7 9 12 12 14 14 16 17 20 19 20 20 18 13 11 13 16 23 26 26 23 20 21 29 27 24 20 18 16 17 20 21 21 28 29 30 39 39 36
9 8 5 2 6 9 9 12 13 15 14 13 13 16 18 15 9 9 15 20 23 20 19 20 17 21 26 30 25 24 26 27 28 26 25 27 28 28 29 28 32 30 32
12 12 8 4 3 6 7 6 8 12 12 15 15 14 10 8 11 26 30 39 24 21 18 16 21 26 26 24 25 23 19 19 20 21 20 21 21 21 22 24 25 25 25
14 17 12 8 5 7 9 10 10 11 11 9 10 15 22 27 28 29 27 19 21 20 16 19 24 27 25 23 23 21 21 21 20 21 23 22 21 21 21 23 27 25 20
18 15 12 10 11 10 10 12 12 11 13 15 19 26 30 32 37 34 30 23 23 19 18 25 26 23 21 21 19 21 20 22 24 26 24 25 24 22 23 26 28 27 27
17 16 13 11 10 12 15 10 10 12 15 19 22 25 29 32 33 28 20 24 22 24 25 23 25 19 18 17 18 21 22 24 26 22 18 20 25 30 33 34 30 26 24
15 12 9 10 12 12 10 10 12 13 17 21 24 23 25 28 32 28 28 32 27 22 17 21 22 19 17 20 21 24 26 26 25 25 27 31 34 37 32 30 30 28 25
9 8 10 12 11 8 9 11 15 18 23 29 31 34 33 29 29 27 28 20 12 13 16 15 15 16 21 21 23 24 24 22 23 27 29 31 34 38 38 35 32 31 26
8 11 12 7 4 8 11 15 19 23 29 30 33 37 37 32 25 23 17 18 32 17 11 15 15 20 20 22 24 24 23 24 25 28 35 34 31 31 28 24 23 23 25
8 8 5 2 6 9 14 17 21 24 27 31 34 33 35 31 29 26 29 26 14 7 5 14 19 18 21 22 23 24 23 27 34 33 27 29 28 28 17 17 17 17 17
5 4 5 1 6 12 15 17 23 27 29 33 32 31 33 34 32 30 26 16 5 4 9 19 18 20 20 23 20 24 30 31 30 30 28 26 28 23 20 21 24 21 20
3 3 1 5 13 16 19 22 26 28 30 29 31 35 37 38 31 25 13 15 6 17 14 17 20 18 19 20 26 29 30 30 29 28 27 26 26 23 21 21 19 20 19
2 5 5 12 17 17 20 22 25 27 30 31 33 33 35 34 25 17 15 9 12 13 17 17 18 17 21 25 28 28 28 28 28 27 27 28 29 22 20 18 19 18 17
7 9 11 16 15 17 18 24 27 28 28 31 32 31 31 28 19 16 16 12 18 13 15 16 16 19 24 28 30 28 27 26 25 27 28 23 20 16 16 17 17 17 16
7 9 13 13 16 18 21 23 18 22 28 31 30 31 30 20 16 13 16 15 9 16 16 14 16 20 25 28 27 26 27 26 27 25 22 19 17 17 18 18 18 23 23
6 7 10 11 15 21 18 16 23 28 30 26 30 33 24 17 13 11 8 11 16 15 12 13 19 24 26 25 24 26 22 21 22 21 19 16 16 18 20 18 19 14 14
6 10 11 16 19 15 20 27 29 26 25 29 33 25 15 13 12 16 18 16 11 9 12 17 21 23 23 23 27 23 16 16 19 19 16 18 19 16 11 11 11 13 14
9 14 19 21 21 21 27 24 27 27 27 31 25 19 14 12 12 11 12 12 10 12 17 20 21 20 21 23 26 23 20 18 17 17 15 17 15 12 13 13 10 9 7
16 21 24 25 26 27 25 24 27 29 32 25 21 18 13 15 14 11 12 11 11 15 18 19 17 18 20 23 25 25 22 19 18 16 15 15 14 12 13 11 9 10 9
21 23 24 26 26 26 27 29 32 31 25 18 18 15 12 13 14 9 10 13 16 18 17 14 15 17 19 23 24 22 20 17 18 15 12 15 17 16 14 10 12 12 11
23 24 25 26 26 29 31 31 26 26 20 17 16 12 12 11 10 12 15 17 18 13 11 13 15 16 17 22 22 21 18 20 17 14 14 16 16 16 15 13 10 11 13
Wind_Direction
92 95 106 108 137 154 160 161 165 166 182 188 192 203 206 218 305 303 311 304 295 290 298 300 301 301 296 294 293 294 299 302 304 309 308 306 306 303 293 292 291 296 307
89 88 93 94 108 132 146 148 169 189 194 186 184 210 254 274 296 305 291 280 278 290 300 292 291 290 293 298 301 305 307 311 316 317 314 314 309 307 300 291 292 294 297
99 92 93 109 110 116 137 155 149 153 229 300 303 303 286 286 281 292 296 300 308 311 300 292 294 306 311 314 315 313 313 316 313 311 310 312 310 313 307 298 297 296 295
100 98 100 99 92 75 70 78 79 48 343 326 329 321 307 301 305 309 306 310 306 303 297 302 307 315 320 324 327 323 318 315 312 310 310 310 307 319 315 300 302 296 297
83 84 82 78 85 55 35 13 356 351 351 343 339 338 323 315 313 306 305 299 286 293 306 312 316 321 324 330 324 318 317 314 311 316 318 315 313 309 312 310 308 308 303
108 101 67 63 31 14 355 347 343 338 332 326 327 322 309 303 297 295 285 295 307 316 317 311 323 325 319 327 320 316 312 315 313 309 313 316 323 318 315 312 307 308 308
150 167 156 100 13 3 350 334 336 339 329 322 301 289 287 282 272 283 323 317 320 305 293 304 312 313 315 319 314 312 307 305 303 306 309 310 310 309 304 300 296 298 298
163 160 136 110 113 64 23 7 328 317 309 303 288 265 258 270 316 323 317 311 299 289 287 289 309 317 322 313 309 314 326 327 329 326 321 316 316 317 312 303 304 295 292
134 144 113 102 67 16 15 13 5 345 329 332 331 325 323 321 316 321 326 300 286 285 270 296 318 322 318 314 317 321 328 329 329 329 326 322 320 316 318 318 312 322 322
114 107 96 75 51 34 12 351 342 339 341 349 340 334 335 327 329 323 315 300 288 269 286 311 320 326 322 322 318 321 330 326 324 324 320 319 318 316 316 319 318 314 304
100 94 79 59 31 8 7 28 24 22 5 352 345 338 333 324 323 311 292 287 280 290 297 306 320 324 323 316 317 321 326 322 321 316 310 306 307 307 305 306 304 302 305
101 82 62 33 15 13 15 8 359 356 348 342 342 343 335 327 317 302 294 294 290 288 300 325 314 322 316 317 318 317 323 321 313 309 305 306 311 310 305 301 298 292 291
87 53 21 13 8 10 4 351 345 337 331 328 329 329 328 321 319 293 293 272 273 281 302 322 311 315 317 316 315 317 317 308 305 304 306 310 311 307 302 298 291 287 282
29 8 15 31 17 358 345 338 334 332 330 327 328 328 330 335 328 293 268 273 298 320 320 302 313 321 318 313 313 316 311 303 304 310 313 314 314 314 310 304 297 289 280
14 16 36 64 352 344 336 334 333 331 330 333 334 335 336 336 333 319 316 314 310 323 263 310 318 316 313 313 310 307 307 312 313 316 317 316 318 316 297 299 305 290 283
45 72 349 37 347 336 334 334 331 331 336 335 335 336 337 337 335 327 313 291 314 271 295 308 312 319 312 313 306 310 315 320 321 321 318 317 319 315 306 288 283 294 298
68 341 339 339 332 330 328 328 329 332 333 335 338 337 336 337 334 329 307 299 285 289 314 307 318 310 310 310 316 322 322 321 321 318 317 318 323 314 305 298 295 290 286
321 318 314 324 324 322 322 325 328 330 331 334 335 333 334 335 329 313 291 262 281 307 301 313 307 305 312 322 325 320 317 318 318 316 320 319 319 316 309 309 302 299 294
319 303 308 319 320 322 324 324 322 323 325 330 333 332 335 335 327 323 331 329 313 290 306 307 300 314 323 326 325 321 320 320 317 317 320 324 319 314 308 324 308 305 298
303 307 318 320 322 320 318 318 310 317 326 332 332 331 333 330 314 313 311 310 296 305 316 304 316 326 331 331 331 332 326 324 328 333 333 331 327 326 315 306 303 303 305
330 326 322 323 325 324 321 312 318 324 329 330 330 329 322 316 314 317 331 312 311 305 305 318 329 333 335 338 339 335 329 336 332 338 341 342 338 325 320 313 305 306 310
303 313 316 322 329 326 316 321 324 327 327 327 328 327 318 311 307 306 306 304 306 308 319 328 332 335 340 344 345 346 349 344 342 346 346 342 335 342 341 333 337 310 302
315 319 325 327 324 320 323 323 325 324 321 325 326 325 317 305 311 317 317 320 313 316 325 330 333 338 344 350 352 360 359 352 351 350 343 345 349 346 349 346 339 334 341
327 328 326 323 323 325 327 323 320 316 315 313 318 320 310 311 312 305 314 310 309 320 327 332 337 344 349 351 358 3 354 351 348 348 347 353 355 354 354 7 15 2 350
331 326 323 322 325 325 324 320 314 313 314 301 303 314 311 318 311 315 305 305 313 323 329 335 340 347 349 353 1 354 355 351 348 351 344 355 3 3 3 12 15 9 12
324 322 323 324 324 324 323 324 321 320 310 287 279 298 310 326 322 311 304 310 316 322 334 332 336 344 347 351 1 351 354 359 352 351 354 358 3 5 4 1 358 4 12
Height
1548 1549 1551 1552 1553 1555 1558 1560 1560 1561 1562 1563 1564 1564 1564 1566 1567 1565 1564 1562 1560 1558 1554 1552 1549 1546 1544 1541 1539 1536 1533 1532 1528 1523 1520 1517 1517 1518 1519 1515 1513 1510 1507
1550 1552 1554 1556 1558 1559 1560 1561 1563 1563 1564 1564 1565 1566 1566 1564 1563 1562 1560 1558 1555 1552 1550 1548 1546 1542 1540 1538 1535 1532 1528 1526 1524 1520 1516 1510 1507 1508 1510 1510 1507 1503 1501
1552 1555 1557 1560 1562 1563 1565 1565 1565 1565 1564 1565 1565 1564 1564 1562 1560 1558 1556 1554 1552 1550 1548 1545 1542 1539 1536 1534 1532 1529 1527 1523 1520 1517 1515 1508 1504 1501 1502 1501 1500 1498 1496
1556 1558 1561 1562 1563 1565 1565 1565 1566 1566 1565 1565 1563 1561 1559 1557 1555 1554 1552 1550 1548 1547 1545 1542 1539 1535 1532 1529 1527 1525 1523 1520 1516 1514 1512 1509 1505 1500 1494 1494 1493 1491 1490
1556 1560 1562 1562 1563 1564 1564 1563 1562 1561 1561 1560 1559 1557 1555 1554 1552 1550 1549 1547 1545 1543 1540 1539 1536 1532 1529 1525 1523 1521 1518 1515 1513 1511 1507 1504 1502 1500 1496 1486 1482 1484 1484
1560 1563 1563 1562 1563 1563 1562 1561 1561 1560 1559 1558 1556 1554 1552 1549 1547 1546 1545 1544 1542 1538 1534 1533 1531 1528 1525 1521 1519 1517 1514 1512 1509 1506 1505 1501 1499 1495 1493 1487 1479 1478 1475
1559 1562 1563 1562 1562 1562 1561 1561 1561 1561 1559 1558 1555 1552 1549 1546 1544 1543 1543 1539 1540 1534 1527 1528 1525 1524 1520 1516 1513 1511 1510 1507 1505 1503 1499 1497 1495 1492 1488 1484 1479 1473 1469
1558 1561 1563 1562 1562 1562 1560 1560 1561 1560 1558 1556 1553 1550 1548 1546 1545 1542 1537 1537 1529 1529 1522 1522 1519 1518 1514 1511 1509 1505 1502 1502 1500 1498 1495 1491 1489 1487 1485 1480 1476 1469 1466
1561 1562 1562 1561 1561 1561 1561 1561 1561 1559 1557 1554 1553 1551 1548 1545 1539 1537 1530 1528 1525 1523 1519 1517 1514 1512 1509 1508 1506 1502 1498 1496 1495 1493 1490 1488 1485 1483 1480 1477 1474 1470 1466
1561 1561 1561 1561 1561 1561 1562 1560 1557 1556 1555 1551 1549 1547 1543 1538 1534 1530 1527 1524 1521 1518 1515 1515 1511 1506 1504 1503 1502 1499 1493 1492 1490 1488 1486 1484 1481 1478 1476 1473 1469 1466 1462
1561 1561 1561 1561 1561 1560 1559 1557 1555 1553 1551 1547 1546 1543 1540 1536 1531 1526 1522 1520 1517 1515 1509 1508 1504 1501 1498 1497 1495 1493 1488 1487 1485 1482 1480 1478 1475 1472 1469 1466 1463 1460 1458
1562 1561 1561 1560 1558 1557 1555 1554 1553 1549 1546 1545 1542 1538 1536 1532 1528 1522 1519 1515 1511 1508 1505 1503 1502 1499 1496 1493 1489 1487 1483 1481 1479 1477 1474 1471 1467 1464 1461 1458 1455 1453 1451
1560 1560 1558 1557 1555 1554 1553 1552 1549 1546 1544 1541 1537 1533 1529 1526 1522 1517 1512 1509 1507 1503 1502 1497 1497 1495 1493 1491 1486 1482 1479 1476 1473 1470 1466 1462 1459 1455 1451 1448 1446 1444 1443
1557 1556 1554 1554 1554 1552 1549 1548 1546 1544 1540 1537 1533 1528 1523 1518 1514 1512 1509 1504 1501 1497 1499 1498 1494 1491 1489 1487 1483 1478 1474 1471 1467 1463 1459 1455 1451 1446 1442 1439 1436 1434 1433
1555 1554 1554 1553 1551 1548 1547 1545 1543 1540 1537 1533 1529 1524 1519 1515 1512 1509 1504 1500 1497 1492 1491 1493 1491 1487 1486 1482 1478 1473 1469 1465 1461 1456 1452 1448 1444 1439 1437 1433 1431 1428 1426
1553 1553 1552 1550 1547 1545 1543 1541 1538 1536 1532 1529 1524 1520 1515 1510 1506 1501 1497 1495 1493 1491 1490 1490 1486 1483 1480 1477 1473 1468 1464 1458 1453 1448 1444 1441 1437 1433 1429 1427 1425 1424 1421
1551 1550 1548 1545 1543 1541 1539 1537 1534 1531 1527 1524 1519 1514 1509 1504 1499 1496 1493 1491 1491 1488 1488 1485 1481 1479 1476 1471 1467 1462 1456 1451 1447 1442 1438 1434 1430 1426 1423 1421 1418 1417 1416
1547 1546 1544 1542 1540 1538 1536 1533 1529 1525 1521 1517 1513 1509 1504 1499 1494 1492 1489 1487 1487 1485 1484 1480 1478 1474 1470 1466 1460 1456 1451 1446 1441 1437 1432 1427 1423 1420 1417 1414 1413 1411 1410
1544 1542 1541 1539 1536 1534 1530 1527 1524 1520 1517 1512 1507 1504 1499 1494 1491 1488 1486 1485 1483 1482 1480 1477 1473 1470 1466 1461 1455 1450 1445 1440 1435 1431 1426 1421 1417 1415 1413 1410 1408 1406 1405
1541 1539 1538 1535 1533 1530 1526 1522 1519 1515 1512 1507 1502 1498 1494 1491 1488 1485 1483 1481 1480 1478 1475 1472 1469 1465 1461 1456 1450 1444 1438 1434 1429 1425 1421 1417 1414 1411 1409 1406 1403 1401 1399
1538 1536 1534 1532 1529 1526 1522 1518 1515 1511 1507 1502 1498 1493 1489 1487 1484 1482 1479 1478 1477 1475 1472 1469 1465 1461 1457 1452 1447 1441 1434 1430 1426 1421 1417 1414 1411 1408 1404 1401 1399 1396 1394
1533 1532 1530 1528 1525 1522 1518 1514 1509 1505 1501 1497 1493 1488 1485 1483 1481 1479 1477 1475 1473 1471 1469 1466 1462 1458 1454 1449 1443 1437 1432 1429 1424 1420 1416 1412 1409 1405 1402 1399 1396 1393 1391
1530 1528 1526 1523 1521 1517 1513 1508 1503 1500 1496 1492 1488 1484 1482 1480 1477 1475 1474 1472 1469 1468 1465 1462 1458 1455 1451 1447 1441 1435 1431 1427 1423 1419 1415 1411 1407 1404 1400 1397 1394 1391 1389
1525 1523 1520 1517 1514 1511 1506 1503 1498 1494 1490 1487 1484 1481 1478 1476 1474 1472 1470 1468 1467 1464 1461 1458 1455 1452 1449 1444 1439 1433 1429 1426 1422 1418 1414 1411 1407 1403 1400 1397 1394 1391 1389
1520 1518 1514 1511 1508 1504 1500 1496 1491 1487 1483 1481 1479 1477 1475 1472 1470 1469 1467 1466 1463 1461 1458 1455 1453 1450 1447 1443 1437 1433 1429 1425 1421 1417 1414 1410 1406 1402 1399 1397 1394 1391 1388
1515 1512 1509 1505 1501 1497 1492 1488 1484 1480 1478 1475 1474 1472 1471 1469 1467 1466 1465 1462 1460 1457 1455 1452 1450 1448 1445 1441 1436 1433 1429 1425 1420 1417 1413 1410 1406 1403 1400 1397 1395 1392 1389